ATLAS 5 CENTAUR R/B, 41623

Orbit data source: Space-Track

ATLAS 5 CENTAUR R/B, 41623 is space debris in HEO originally from a launch on Fri, 24 Jun 2016 UTC launched from the Air Force Eastern Test Range (AFETR). Debris objects in space refer to the collection of defunct objects orbiting the Earth. Examples of debris include non-operational satellites, rocket bodies, and fragments generated from explosions, collisions, or faulty payload assembly.

Loading next visibility...
ATLAS 5 CENTAUR R/B details
Identifier
41623, 2016-041B
Orbit
HEO
Last TLE update14 hours ago
Origin
Flag of USLMSS Denver (US)
ManufacturerLMSS Denver
MissionSpacecraft
Bus & MotorCENTAUR SEC, RL10C-1
Mass~2,020 kg wet, 2,020 kg dry
Launch date (UTC)
2016-06-24 (9 years ago)
Launch vehicleUnknown
Launch site
Air Force Eastern Test Range (AFETR)
Object type
Payload
Rocket body
Debris
Shape & HBRCyl + 1 Nozzle, 11.7 m
Radar Cross Section32.260 m², Large (>1 m²)

Expand to show TLE details & history

TLE from 14 hours ago
0 ATLAS 5 CENTAUR R/B
1 41623U 16041B   24361.33520706 -.00000169  00000-0  00000-0 0  9997
2 41623  18.2876 106.6912 6129405 149.3695 268.3193  2.09542035 65125
Epoch: 2024-12-26T08:02Z
Definitive object data (Epoch: 2024-12-26T08:02:41.889Z)
Latitude0.00001°
Longitude-109.36571°
Altitude27,730.505 km
Speed2.814 km/s
True Right ascension07h 06m 29s
True Declination0° 00' 00"
Sunlit
Object was in daylight at TLE epoch
Visualization TLE readout
Latitude17.52391°
Longitude-1.39082°
Altitude4,686.941 km
Speed7.524 km/s
Apparent Right ascension12h 54m 16s
Apparent Declination-3° 19' 08"
Sunlit
Object is in daylight
Visualization observer readout
Local Sidereal Time21:31:42
Azimuth295.117° NW
Elevation-31.517°
Doppler factor1
Orbital elements
Apogee altitude35,234.255 km
Perigee altitude3,607.645 km
Semi-major axis25,799.087 km
Eccentricity0.6129405
Inclination18.2876°
RAAN106.6912°
Arg. of periapsis149.3695°
True anomaly210.62575°
Mean anomaly268.3193°
Eccentric anomaly238.40574°
Mean motion0.52377 °/min
BSTARUnknown
Orbital period687.33 mins
Loading maneuver chart data...
Loading historical data...
Loading historical data...
Loading historical data...
Loading historical data...
Loading historical data...
Loading historical data...
Loading historical data...
Other satellites on launch #41 in the year 2016 (2016-06-24 UTC)

ATLAS 5 CENTAUR R/B Visibility forecast

Observer location: undefined°, undefined

Span
Click to sort rows by Start time (UTC) header in descending order
Start Az.
Max El. time (UTC)
Max El. Az.
Max El.
End time (UTC)
End Az.
621 mins2024-12-26 22:59:36.355Z187.026° SSW2024-12-27 08:11:36.355Z153.777° SSE34.924°2024-12-27 09:20:36.355Z99.504° ESE
5 mins2024-12-27 21:43:36.355Z185.724° SSW2024-12-27 21:45:36.355Z181.685° SSW10.163°2024-12-27 21:48:36.355Z176.246° S
|